owner,sensor,date,latitude,longitude,vertical_datum,sea_water_practical_salinity,qcFlag 
SCCF RECON,ioos:station:SCCF:18:1,2013-07-01T00:00:00Z,26.6955,-81.8138,1.79,0.26,1111122 
SCCF RECON,ioos:station:SCCF:18:1,2013-07-01T01:00:00Z,26.6955,-81.8138,1.79,0.26,1111122 
SCCF RECON,ioos:station:SCCF:18:1,2013-07-01T02:00:00Z,26.6955,-81.8138,1.82,0.26,1111122 
SCCF RECON,ioos:station:SCCF:18:1,2013-07-01T03:00:00Z,26.6955,-81.8138,1.84,0.26,1111122 
SCCF RECON,ioos:station:SCCF:18:1,2013-07-01T04:00:00Z,26.6955,-81.8138,1.83,0.26,1111122 
SCCF RECON,ioos:station:SCCF:18:1,2013-07-01T05:00:00Z,26.6955,-81.8138,1.83,0.26,1111122 
SCCF RECON,ioos:station:SCCF:18:1,2013-07-01T06:00:00Z,26.6955,-81.8138,1.74,0.26,1111122 
SCCF RECON,ioos:station:SCCF:18:1,2013-07-01T07:00:00Z,26.6955,-81.8138,1.8,0.26,1111122 
SCCF RECON,ioos:station:SCCF:18:1,2013-07-01T08:00:00Z,26.6955,-81.8138,1.76,0.26,1111122 
SCCF RECON,ioos:station:SCCF:18:1,2013-07-01T09:00:00Z,26.6955,-81.8138,1.73,0.25,1111122 
SCCF RECON,ioos:station:SCCF:18:1,2013-07-01T10:00:00Z,26.6955,-81.8138,1.76,0.25,1111122 
SCCF RECON,ioos:station:SCCF:18:1,2013-07-01T11:00:00Z,26.6955,-81.8138,1.85,0.25,1111122 
SCCF RECON,ioos:station:SCCF:18:1,2013-07-01T12:00:00Z,26.6955,-81.8138,1.98,0.25,1111122 
SCCF RECON,ioos:station:SCCF:18:1,2013-07-01T13:00:00Z,26.6955,-81.8138,1.99,0.25,1111122 
SCCF RECON,ioos:station:SCCF:18:1,2013-07-01T14:00:00Z,26.6955,-81.8138,1.975,0.25,1111122 
SCCF RECON,ioos:station:SCCF:18:1,2013-07-01T15:00:00Z,26.6955,-81.8138,2.01,0.25,1111122 
SCCF RECON,ioos:station:SCCF:18:1,2013-07-01T16:00:00Z,26.6955,-81.8138,2.03,0.25,1111122 
SCCF RECON,ioos:station:SCCF:18:1,2013-07-01T17:00:00Z,26.6955,-81.8138,2.076,0.25,1111122 
SCCF RECON,ioos:station:SCCF:18:1,2013-07-01T18:00:00Z,26.6955,-81.8138,2.04,0.25,1111122 
SCCF RECON,ioos:station:SCCF:18:1,2013-07-01T19:00:00Z,26.6955,-81.8138,1.96,0.25,1111122 
SCCF RECON,ioos:station:SCCF:18:1,2013-07-01T20:00:00Z,26.6955,-81.8138,1.93,0.25,1111122 
SCCF RECON,ioos:station:SCCF:18:1,2013-07-01T21:00:00Z,26.6955,-81.8138,1.92,0.24,1111122 
SCCF RECON,ioos:station:SCCF:18:1,2013-07-01T22:00:00Z,26.6955,-81.8138,1.86,0.24,1111122 
SCCF RECON,ioos:station:SCCF:18:1,2013-07-01T23:00:00Z,26.6955,-81.8138,1.811,0.24,1111122 
SCCF RECON,ioos:station:SCCF:18:1,2013-07-02T00:00:00Z,26.6955,-81.8138,1.77,0.24,1111122 
SCCF RECON,ioos:station:SCCF:18:1,2013-07-02T01:00:00Z,26.6955,-81.8138,1.77,0.24,1111122 
SCCF RECON,ioos:station:SCCF:18:1,2013-07-02T02:00:00Z,26.6955,-81.8138,1.81,0.24,1111122 
SCCF RECON,ioos:station:SCCF:18:1,2013-07-02T03:00:00Z,26.6955,-81.8138,1.84,0.24,1111122 
SCCF RECON,ioos:station:SCCF:18:1,2013-07-02T04:00:00Z,26.6955,-81.8138,1.8,0.24,1111122 
SCCF RECON,ioos:station:SCCF:18:1,2013-07-02T05:00:00Z,26.6955,-81.8138,1.79,0.24,1111122 
SCCF RECON,ioos:station:SCCF:18:1,2013-07-02T06:00:00Z,26.6955,-81.8138,1.77,0.24,1111122 
SCCF RECON,ioos:station:SCCF:18:1,2013-07-02T07:00:00Z,26.6955,-81.8138,1.74,0.24,1111122 
SCCF RECON,ioos:station:SCCF:18:1,2013-07-02T08:00:00Z,26.6955,-81.8138,1.72,0.24,1111122 
SCCF RECON,ioos:station:SCCF:18:1,2013-07-02T09:00:00Z,26.6955,-81.8138,1.7,0.24,1111122 
SCCF RECON,ioos:station:SCCF:18:1,2013-07-02T10:00:00Z,26.6955,-81.8138,1.68,0.24,1111122 
SCCF RECON,ioos:station:SCCF:18:1,2013-07-02T11:00:00Z,26.6955,-81.8138,1.67,0.24,1111122 
SCCF RECON,ioos:station:SCCF:18:1,2013-07-02T12:00:00Z,26.6955,-81.8138,1.7,0.24,1111122 
SCCF RECON,ioos:station:SCCF:18:1,2013-07-02T13:00:00Z,26.6955,-81.8138,1.786,0.24,1111122 
SCCF RECON,ioos:station:SCCF:18:1,2013-07-02T14:00:00Z,26.6955,-81.8138,1.91,0.24,1111122 
SCCF RECON,ioos:station:SCCF:18:1,2013-07-02T15:00:00Z,26.6955,-81.8138,1.91,0.24,1111122 
SCCF RECON,ioos:station:SCCF:18:1,2013-07-02T16:00:00Z,26.6955,-81.8138,1.89,0.24,1111122 
SCCF RECON,ioos:station:SCCF:18:1,2013-07-02T17:00:00Z,26.6955,-81.8138,1.86,0.24,1111122 
SCCF RECON,ioos:station:SCCF:18:1,2013-07-02T18:00:00Z,26.6955,-81.8138,1.86,0.24,1111122 
SCCF RECON,ioos:station:SCCF:18:1,2013-07-02T19:00:00Z,26.6955,-81.8138,1.81,0.23,1111122 
SCCF RECON,ioos:station:SCCF:18:1,2013-07-02T20:00:00Z,26.6955,-81.8138,1.76,0.23,1111122 
SCCF RECON,ioos:station:SCCF:18:1,2013-07-02T21:00:00Z,26.6955,-81.8138,1.72,0.23,1111122 
SCCF RECON,ioos:station:SCCF:18:1,2013-07-02T22:00:00Z,26.6955,-81.8138,1.68,0.23,1111122 
SCCF RECON,ioos:station:SCCF:18:1,2013-07-02T23:00:00Z,26.6955,-81.8138,1.65,0.23,1111122 
SCCF RECON,ioos:station:SCCF:18:1,2013-07-03T00:00:00Z,26.6955,-81.8138,1.63,0.23,1111122 
SCCF RECON,ioos:station:SCCF:18:1,2013-07-03T01:00:00Z,26.6955,-81.8138,1.61,0.23,1111122 
SCCF RECON,ioos:station:SCCF:18:1,2013-07-03T02:00:00Z,26.6955,-81.8138,1.62,0.22,1111122 
SCCF RECON,ioos:station:SCCF:18:1,2013-07-03T03:00:00Z,26.6955,-81.8138,1.67,0.22,1111122 
SCCF RECON,ioos:station:SCCF:18:1,2013-07-03T04:00:00Z,26.6955,-81.8138,1.64,0.22,1111122 
SCCF RECON,ioos:station:SCCF:18:1,2013-07-03T05:00:00Z,26.6955,-81.8138,1.61,0.22,1111122 
SCCF RECON,ioos:station:SCCF:18:1,2013-07-03T06:00:00Z,26.6955,-81.8138,1.62,0.22,1111122 
SCCF RECON,ioos:station:SCCF:18:1,2013-07-03T07:00:00Z,26.6955,-81.8138,1.61,0.22,1111122 
SCCF RECON,ioos:station:SCCF:18:1,2013-07-03T08:00:00Z,26.6955,-81.8138,1.63,0.22,1111122 
SCCF RECON,ioos:station:SCCF:18:1,2013-07-03T09:00:00Z,26.6955,-81.8138,1.66,0.22,1111122 
SCCF RECON,ioos:station:SCCF:18:1,2013-07-03T10:00:00Z,26.6955,-81.8138,1.655,0.22,1111122 
SCCF RECON,ioos:station:SCCF:18:1,2013-07-03T11:00:00Z,26.6955,-81.8138,1.652,0.22,1111122 
SCCF RECON,ioos:station:SCCF:18:1,2013-07-03T12:00:00Z,26.6955,-81.8138,1.66,0.21,1111122 
SCCF RECON,ioos:station:SCCF:18:1,2013-07-03T13:00:00Z,26.6955,-81.8138,1.7,0.21,1111122 
SCCF RECON,ioos:station:SCCF:18:1,2013-07-03T14:00:00Z,26.6955,-81.8138,1.76,0.22,1111122 
SCCF RECON,ioos:station:SCCF:18:1,2013-07-03T15:00:00Z,26.6955,-81.8138,1.82,0.22,1111122 
SCCF RECON,ioos:station:SCCF:18:1,2013-07-03T16:00:00Z,26.6955,-81.8138,1.876,0.22,1111122 
SCCF RECON,ioos:station:SCCF:18:1,2013-07-03T17:00:00Z,26.6955,-81.8138,1.91,0.21,1111122 
SCCF RECON,ioos:station:SCCF:18:1,2013-07-03T18:00:00Z,26.6955,-81.8138,1.92,0.21,1111122 
SCCF RECON,ioos:station:SCCF:18:1,2013-07-03T19:00:00Z,26.6955,-81.8138,1.99,0.21,1111122 
SCCF RECON,ioos:station:SCCF:18:1,2013-07-03T20:00:00Z,26.6955,-81.8138,1.88,0.21,1111122 
SCCF RECON,ioos:station:SCCF:18:1,2013-07-03T21:00:00Z,26.6955,-81.8138,1.82,0.21,1111122 
SCCF RECON,ioos:station:SCCF:18:1,2013-07-03T22:00:00Z,26.6955,-81.8138,1.772,0.21,1111122 
SCCF RECON,ioos:station:SCCF:18:1,2013-07-03T23:00:00Z,26.6955,-81.8138,1.73,0.21,1111122 
SCCF RECON,ioos:station:SCCF:18:1,2013-07-04T00:00:00Z,26.6955,-81.8138,1.71,0.21,1111122 
SCCF RECON,ioos:station:SCCF:18:1,2013-07-04T01:00:00Z,26.6955,-81.8138,1.68,0.21,1111122 
SCCF RECON,ioos:station:SCCF:18:1,2013-07-04T02:00:00Z,26.6955,-81.8138,1.688,0.21,1111122 
SCCF RECON,ioos:station:SCCF:18:1,2013-07-04T03:00:00Z,26.6955,-81.8138,1.67,0.21,1111122 
SCCF RECON,ioos:station:SCCF:18:1,2013-07-04T04:00:00Z,26.6955,-81.8138,1.67,0.21,1111122 
SCCF RECON,ioos:station:SCCF:18:1,2013-07-04T05:00:00Z,26.6955,-81.8138,1.69,0.21,1111122 
SCCF RECON,ioos:station:SCCF:18:1,2013-07-04T06:00:00Z,26.6955,-81.8138,1.69,0.21,1111122 
SCCF RECON,ioos:station:SCCF:18:1,2013-07-04T07:00:00Z,26.6955,-81.8138,1.74,0.21,1111122 
SCCF RECON,ioos:station:SCCF:18:1,2013-07-04T08:00:00Z,26.6955,-81.8138,1.77,0.21,1111122 
SCCF RECON,ioos:station:SCCF:18:1,2013-07-04T09:00:00Z,26.6955,-81.8138,1.75,0.21,1111122 
SCCF RECON,ioos:station:SCCF:18:1,2013-07-04T10:00:00Z,26.6955,-81.8138,1.72,0.21,1111122 
SCCF RECON,ioos:station:SCCF:18:1,2013-07-04T11:00:00Z,26.6955,-81.8138,1.69,0.21,1111122 
SCCF RECON,ioos:station:SCCF:18:1,2013-07-04T12:00:00Z,26.6955,-81.8138,1.66,0.2,1111122 
SCCF RECON,ioos:station:SCCF:18:1,2013-07-04T13:00:00Z,26.6955,-81.8138,1.66,0.2,1111122 
SCCF RECON,ioos:station:SCCF:18:1,2013-07-04T14:00:00Z,26.6955,-81.8138,1.69,0.21,1111122 
SCCF RECON,ioos:station:SCCF:18:1,2013-07-04T15:00:00Z,26.6955,-81.8138,1.78,0.2,1111122 
SCCF RECON,ioos:station:SCCF:18:1,2013-07-04T16:00:00Z,26.6955,-81.8138,1.85,0.2,1111122 
SCCF RECON,ioos:station:SCCF:18:1,2013-07-04T17:00:00Z,26.6955,-81.8138,1.891,0.2,1111122 
SCCF RECON,ioos:station:SCCF:18:1,2013-07-04T18:00:00Z,26.6955,-81.8138,1.9,0.2,1111122 
SCCF RECON,ioos:station:SCCF:18:1,2013-07-04T19:00:00Z,26.6955,-81.8138,1.91,0.2,1111122 
SCCF RECON,ioos:station:SCCF:18:1,2013-07-04T20:00:00Z,26.6955,-81.8138,1.872,0.2,1111122 
SCCF RECON,ioos:station:SCCF:18:1,2013-07-04T21:00:00Z,26.6955,-81.8138,1.83,0.2,1111122 
SCCF RECON,ioos:station:SCCF:18:1,2013-07-04T22:00:00Z,26.6955,-81.8138,1.8,0.2,1111122 
SCCF RECON,ioos:station:SCCF:18:1,2013-07-04T23:00:00Z,26.6955,-81.8138,1.76,0.2,1111122 
SCCF RECON,ioos:station:SCCF:18:1,2013-07-05T00:00:00Z,26.6955,-81.8138,1.71,0.2,1111122 
SCCF RECON,ioos:station:SCCF:18:1,2013-07-05T01:00:00Z,26.6955,-81.8138,1.68,0.2,1111122 
SCCF RECON,ioos:station:SCCF:18:1,2013-07-05T02:00:00Z,26.6955,-81.8138,1.646,0.2,1111122 
SCCF RECON,ioos:station:SCCF:18:1,2013-07-05T03:00:00Z,26.6955,-81.8138,1.62,0.2,1111122 
SCCF RECON,ioos:station:SCCF:18:1,2013-07-05T04:00:00Z,26.6955,-81.8138,1.61,0.2,1111122 
SCCF RECON,ioos:station:SCCF:18:1,2013-07-05T05:00:00Z,26.6955,-81.8138,1.63,0.2,1111122 
SCCF RECON,ioos:station:SCCF:18:1,2013-07-05T06:00:00Z,26.6955,-81.8138,1.67,0.2,1111122 
SCCF RECON,ioos:station:SCCF:18:1,2013-07-05T07:00:00Z,26.6955,-81.8138,1.7,0.2,1111122 
SCCF RECON,ioos:station:SCCF:18:1,2013-07-05T08:00:00Z,26.6955,-81.8138,1.7,0.2,1111122 
SCCF RECON,ioos:station:SCCF:18:1,2013-07-05T09:00:00Z,26.6955,-81.8138,1.69,0.2,1111122 
SCCF RECON,ioos:station:SCCF:18:1,2013-07-05T10:00:00Z,26.6955,-81.8138,1.66,0.2,1111122 
SCCF RECON,ioos:station:SCCF:18:1,2013-07-05T11:00:00Z,26.6955,-81.8138,1.64,0.2,1111122 
SCCF RECON,ioos:station:SCCF:18:1,2013-07-05T12:00:00Z,26.6955,-81.8138,1.61,0.2,1111122 
SCCF RECON,ioos:station:SCCF:18:1,2013-07-05T13:00:00Z,26.6955,-81.8138,1.61,0.2,1111122 
SCCF RECON,ioos:station:SCCF:18:1,2013-07-05T14:00:00Z,26.6955,-81.8138,1.63,0.2,1111122 
SCCF RECON,ioos:station:SCCF:18:1,2013-07-05T15:00:00Z,26.6955,-81.8138,1.7,0.2,1111122 
SCCF RECON,ioos:station:SCCF:18:1,2013-07-05T16:00:00Z,26.6955,-81.8138,1.766,0.2,1111122 
SCCF RECON,ioos:station:SCCF:18:1,2013-07-05T17:00:00Z,26.6955,-81.8138,1.814,0.19,1111122 
SCCF RECON,ioos:station:SCCF:18:1,2013-07-05T18:00:00Z,26.6955,-81.8138,1.9,0.19,1111122 
SCCF RECON,ioos:station:SCCF:18:1,2013-07-05T19:00:00Z,26.6955,-81.8138,1.93,0.19,1111122 
SCCF RECON,ioos:station:SCCF:18:1,2013-07-05T20:00:00Z,26.6955,-81.8138,1.94,0.2,1111122 
SCCF RECON,ioos:station:SCCF:18:1,2013-07-05T21:00:00Z,26.6955,-81.8138,1.89,0.19,1111122 
SCCF RECON,ioos:station:SCCF:18:1,2013-07-05T22:00:00Z,26.6955,-81.8138,1.82,0.19,1111122 
SCCF RECON,ioos:station:SCCF:18:1,2013-07-05T23:00:00Z,26.6955,-81.8138,1.79,0.19,1111122 
SCCF RECON,ioos:station:SCCF:18:1,2013-07-06T00:00:00Z,26.6955,-81.8138,1.75,0.19,1111122 
SCCF RECON,ioos:station:SCCF:18:1,2013-07-06T01:00:00Z,26.6955,-81.8138,1.71,0.19,1111122 
SCCF RECON,ioos:station:SCCF:18:1,2013-07-06T02:00:00Z,26.6955,-81.8138,1.67,0.19,1111122 
SCCF RECON,ioos:station:SCCF:18:1,2013-07-06T03:00:00Z,26.6955,-81.8138,1.66,0.19,1111122 
SCCF RECON,ioos:station:SCCF:18:1,2013-07-06T04:00:00Z,26.6955,-81.8138,1.631,0.19,1111122 
SCCF RECON,ioos:station:SCCF:18:1,2013-07-06T05:00:00Z,26.6955,-81.8138,1.62,0.19,1111122 
SCCF RECON,ioos:station:SCCF:18:1,2013-07-06T06:00:00Z,26.6955,-81.8138,1.66,0.18,1111122 
SCCF RECON,ioos:station:SCCF:18:1,2013-07-06T07:00:00Z,26.6955,-81.8138,1.71,0.18,1111122 
SCCF RECON,ioos:station:SCCF:18:1,2013-07-06T08:00:00Z,26.6955,-81.8138,1.73,0.18,1111122 
SCCF RECON,ioos:station:SCCF:18:1,2013-07-06T09:00:00Z,26.6955,-81.8138,1.73,0.18,1111122 
SCCF RECON,ioos:station:SCCF:18:1,2013-07-06T10:00:00Z,26.6955,-81.8138,1.71,0.18,1111122 
SCCF RECON,ioos:station:SCCF:18:1,2013-07-06T11:00:00Z,26.6955,-81.8138,1.69,0.18,1111122 
SCCF RECON,ioos:station:SCCF:18:1,2013-07-06T12:00:00Z,26.6955,-81.8138,1.67,0.18,1111122 
SCCF RECON,ioos:station:SCCF:18:1,2013-07-06T13:00:00Z,26.6955,-81.8138,1.67,0.18,1111122 
SCCF RECON,ioos:station:SCCF:18:1,2013-07-06T14:00:00Z,26.6955,-81.8138,1.67,0.18,1111122 
SCCF RECON,ioos:station:SCCF:18:1,2013-07-06T15:00:00Z,26.6955,-81.8138,1.73,0.18,1111122 
SCCF RECON,ioos:station:SCCF:18:1,2013-07-06T16:00:00Z,26.6955,-81.8138,1.8,0.18,1111122 
SCCF RECON,ioos:station:SCCF:18:1,2013-07-06T17:00:00Z,26.6955,-81.8138,1.86,0.18,1111122 
SCCF RECON,ioos:station:SCCF:18:1,2013-07-06T18:00:00Z,26.6955,-81.8138,1.91,0.18,1111122 
SCCF RECON,ioos:station:SCCF:18:1,2013-07-06T19:00:00Z,26.6955,-81.8138,1.92,0.18,1111122 
SCCF RECON,ioos:station:SCCF:18:1,2013-07-06T20:00:00Z,26.6955,-81.8138,1.9,0.18,1111122 
SCCF RECON,ioos:station:SCCF:18:1,2013-07-06T21:00:00Z,26.6955,-81.8138,1.85,0.18,1111122 
SCCF RECON,ioos:station:SCCF:18:1,2013-07-06T22:00:00Z,26.6955,-81.8138,1.81,0.18,1111122 
SCCF RECON,ioos:station:SCCF:18:1,2013-07-06T23:00:00Z,26.6955,-81.8138,1.773,0.18,1111122 
SCCF RECON,ioos:station:SCCF:18:1,2013-07-07T00:00:00Z,26.6955,-81.8138,1.74,0.18,1111122 
SCCF RECON,ioos:station:SCCF:18:1,2013-07-07T01:00:00Z,26.6955,-81.8138,1.71,0.18,1111122 
SCCF RECON,ioos:station:SCCF:18:1,2013-07-07T02:00:00Z,26.6955,-81.8138,1.67,0.18,1111122 
SCCF RECON,ioos:station:SCCF:18:1,2013-07-07T03:00:00Z,26.6955,-81.8138,1.64,0.18,1111122 
SCCF RECON,ioos:station:SCCF:18:1,2013-07-07T04:00:00Z,26.6955,-81.8138,1.62,0.18,1111122 
SCCF RECON,ioos:station:SCCF:18:1,2013-07-07T05:00:00Z,26.6955,-81.8138,1.61,0.18,1111122 
SCCF RECON,ioos:station:SCCF:18:1,2013-07-07T06:00:00Z,26.6955,-81.8138,1.63,0.18,1111122 
SCCF RECON,ioos:station:SCCF:18:1,2013-07-07T07:00:00Z,26.6955,-81.8138,1.7,0.18,1111122 
SCCF RECON,ioos:station:SCCF:18:1,2013-07-07T08:00:00Z,26.6955,-81.8138,1.74,0.18,1111122 
SCCF RECON,ioos:station:SCCF:18:1,2013-07-07T09:00:00Z,26.6955,-81.8138,1.75,0.18,1111122 
SCCF RECON,ioos:station:SCCF:18:1,2013-07-07T10:00:00Z,26.6955,-81.8138,1.73,0.18,1111122 
SCCF RECON,ioos:station:SCCF:18:1,2013-07-07T11:00:00Z,26.6955,-81.8138,1.71,0.18,1111122 
SCCF RECON,ioos:station:SCCF:18:1,2013-07-07T12:00:00Z,26.6955,-81.8138,1.69,0.18,1111122 
SCCF RECON,ioos:station:SCCF:18:1,2013-07-07T13:00:00Z,26.6955,-81.8138,1.67,0.18,1111122 
SCCF RECON,ioos:station:SCCF:18:1,2013-07-07T14:00:00Z,26.6955,-81.8138,1.64,0.18,1111122 
SCCF RECON,ioos:station:SCCF:18:1,2013-07-07T15:00:00Z,26.6955,-81.8138,1.64,0.18,1111122 
SCCF RECON,ioos:station:SCCF:18:1,2013-07-07T16:00:00Z,26.6955,-81.8138,1.69,0.18,1111122 
SCCF RECON,ioos:station:SCCF:18:1,2013-07-07T17:00:00Z,26.6955,-81.8138,1.76,0.18,1111122 
SCCF RECON,ioos:station:SCCF:18:1,2013-07-07T18:00:00Z,26.6955,-81.8138,1.81,0.18,1111122 
SCCF RECON,ioos:station:SCCF:18:1,2013-07-07T19:00:00Z,26.6955,-81.8138,1.85,0.19,1111122 
SCCF RECON,ioos:station:SCCF:18:1,2013-07-07T20:00:00Z,26.6955,-81.8138,1.86,0.18,1111122 
SCCF RECON,ioos:station:SCCF:18:1,2013-07-07T21:00:00Z,26.6955,-81.8138,1.84,0.19,1111122 
SCCF RECON,ioos:station:SCCF:18:1,2013-07-07T22:00:00Z,26.6955,-81.8138,1.8,0.19,1111122 
SCCF RECON,ioos:station:SCCF:18:1,2013-07-07T23:00:00Z,26.6955,-81.8138,1.75,0.19,1111122 
SCCF RECON,ioos:station:SCCF:18:1,2013-07-08T00:00:00Z,26.6955,-81.8138,1.71,0.19,1111122 
SCCF RECON,ioos:station:SCCF:18:1,2013-07-08T01:00:00Z,26.6955,-81.8138,1.68,0.18,1111122 
SCCF RECON,ioos:station:SCCF:18:1,2013-07-08T02:00:00Z,26.6955,-81.8138,1.65,0.19,1111122 
SCCF RECON,ioos:station:SCCF:18:1,2013-07-08T03:00:00Z,26.6955,-81.8138,1.62,0.19,1111122 
SCCF RECON,ioos:station:SCCF:18:1,2013-07-08T04:00:00Z,26.6955,-81.8138,1.59,0.19,1111122 
SCCF RECON,ioos:station:SCCF:18:1,2013-07-08T05:00:00Z,26.6955,-81.8138,1.58,0.19,1111122 
SCCF RECON,ioos:station:SCCF:18:1,2013-07-08T06:00:00Z,26.6955,-81.8138,1.64,0.19,1111122 
SCCF RECON,ioos:station:SCCF:18:1,2013-07-08T07:00:00Z,26.6955,-81.8138,1.69,0.2,1111122 
SCCF RECON,ioos:station:SCCF:18:1,2013-07-08T08:00:00Z,26.6955,-81.8138,1.74,0.2,1111122 
SCCF RECON,ioos:station:SCCF:18:1,2013-07-08T09:00:00Z,26.6955,-81.8138,1.78,0.2,1111122 
SCCF RECON,ioos:station:SCCF:18:1,2013-07-08T10:00:00Z,26.6955,-81.8138,1.79,0.19,1111122 
SCCF RECON,ioos:station:SCCF:18:1,2013-07-08T11:00:00Z,26.6955,-81.8138,1.75,0.2,1111122 
SCCF RECON,ioos:station:SCCF:18:1,2013-07-08T12:00:00Z,26.6955,-81.8138,1.72,0.21,1111122 
SCCF RECON,ioos:station:SCCF:18:1,2013-07-08T13:00:00Z,26.6955,-81.8138,1.69,0.21,1111122 
SCCF RECON,ioos:station:SCCF:18:1,2013-07-08T14:00:00Z,26.6955,-81.8138,1.65,0.21,1111122 
SCCF RECON,ioos:station:SCCF:18:1,2013-07-08T15:00:00Z,26.6955,-81.8138,1.64,0.21,1111122 
SCCF RECON,ioos:station:SCCF:18:1,2013-07-08T16:00:00Z,26.6955,-81.8138,1.66,0.2,1111122 
SCCF RECON,ioos:station:SCCF:18:1,2013-07-08T17:00:00Z,26.6955,-81.8138,1.75,0.21,1111122 
SCCF RECON,ioos:station:SCCF:18:1,2013-07-08T18:00:00Z,26.6955,-81.8138,1.83,0.21,1111122 
SCCF RECON,ioos:station:SCCF:18:1,2013-07-08T19:00:00Z,26.6955,-81.8138,1.88,0.21,1111122 
SCCF RECON,ioos:station:SCCF:18:1,2013-07-08T20:00:00Z,26.6955,-81.8138,1.91,0.2,1111122 
SCCF RECON,ioos:station:SCCF:18:1,2013-07-08T21:00:00Z,26.6955,-81.8138,1.92,0.2,1111122 
SCCF RECON,ioos:station:SCCF:18:1,2013-07-08T22:00:00Z,26.6955,-81.8138,1.92,0.2,1111122 
SCCF RECON,ioos:station:SCCF:18:1,2013-07-08T23:00:00Z,26.6955,-81.8138,1.869,0.2,1111122 
SCCF RECON,ioos:station:SCCF:18:1,2013-07-09T00:00:00Z,26.6955,-81.8138,1.81,0.19,1111122 
SCCF RECON,ioos:station:SCCF:18:1,2013-07-09T01:00:00Z,26.6955,-81.8138,1.77,0.2,1111122 
SCCF RECON,ioos:station:SCCF:18:1,2013-07-09T02:00:00Z,26.6955,-81.8138,1.73,0.19,1111122 
SCCF RECON,ioos:station:SCCF:18:1,2013-07-09T03:00:00Z,26.6955,-81.8138,1.69,0.18,1111122 
SCCF RECON,ioos:station:SCCF:18:1,2013-07-09T04:00:00Z,26.6955,-81.8138,1.65,0.18,1111122 
SCCF RECON,ioos:station:SCCF:18:1,2013-07-09T05:00:00Z,26.6955,-81.8138,1.61,0.18,1111122 
SCCF RECON,ioos:station:SCCF:18:1,2013-07-09T06:00:00Z,26.6955,-81.8138,1.62,0.18,1111122 
SCCF RECON,ioos:station:SCCF:18:1,2013-07-09T07:00:00Z,26.6955,-81.8138,1.68,0.17,1111122 
SCCF RECON,ioos:station:SCCF:18:1,2013-07-09T08:00:00Z,26.6955,-81.8138,1.73,0.16,1111122 
SCCF RECON,ioos:station:SCCF:18:1,2013-07-09T09:00:00Z,26.6955,-81.8138,1.77,0.17,1111122 
SCCF RECON,ioos:station:SCCF:18:1,2013-07-09T10:00:00Z,26.6955,-81.8138,1.8,0.17,1111122 
SCCF RECON,ioos:station:SCCF:18:1,2013-07-09T11:00:00Z,26.6955,-81.8138,1.79,0.17,1111122 
SCCF RECON,ioos:station:SCCF:18:1,2013-07-09T12:00:00Z,26.6955,-81.8138,1.76,0.17,1111122 
SCCF RECON,ioos:station:SCCF:18:1,2013-07-09T13:00:00Z,26.6955,-81.8138,1.71,0.16,1111122 
SCCF RECON,ioos:station:SCCF:18:1,2013-07-09T14:00:00Z,26.6955,-81.8138,1.67,0.17,1111122 
SCCF RECON,ioos:station:SCCF:18:1,2013-07-09T15:00:00Z,26.6955,-81.8138,1.65,0.16,1111122 
SCCF RECON,ioos:station:SCCF:18:1,2013-07-09T16:00:00Z,26.6955,-81.8138,1.65,0.16,1111122 
SCCF RECON,ioos:station:SCCF:18:1,2013-07-09T17:00:00Z,26.6955,-81.8138,1.72,0.16,1111122 
SCCF RECON,ioos:station:SCCF:18:1,2013-07-09T18:00:00Z,26.6955,-81.8138,1.772,0.15,1111122 
SCCF RECON,ioos:station:SCCF:18:1,2013-07-09T19:00:00Z,26.6955,-81.8138,1.86,0.16,1111122 
SCCF RECON,ioos:station:SCCF:18:1,2013-07-09T20:00:00Z,26.6955,-81.8138,1.92,0.16,1111122 
SCCF RECON,ioos:station:SCCF:18:1,2013-07-09T21:00:00Z,26.6955,-81.8138,1.94,0.16,1111122 
SCCF RECON,ioos:station:SCCF:18:1,2013-07-09T22:00:00Z,26.6955,-81.8138,1.9,0.16,1111122 
SCCF RECON,ioos:station:SCCF:18:1,2013-07-09T23:00:00Z,26.6955,-81.8138,1.85,0.16,1111122 
SCCF RECON,ioos:station:SCCF:18:1,2013-07-10T00:00:00Z,26.6955,-81.8138,1.79,0.16,1111122 
SCCF RECON,ioos:station:SCCF:18:1,2013-07-10T01:00:00Z,26.6955,-81.8138,1.75,0.16,1111122 
SCCF RECON,ioos:station:SCCF:18:1,2013-07-10T02:00:00Z,26.6955,-81.8138,1.71,0.16,1111122 
SCCF RECON,ioos:station:SCCF:18:1,2013-07-10T03:00:00Z,26.6955,-81.8138,1.67,0.17,1111122 
SCCF RECON,ioos:station:SCCF:18:1,2013-07-10T04:00:00Z,26.6955,-81.8138,1.63,0.17,1111122 
SCCF RECON,ioos:station:SCCF:18:1,2013-07-10T05:00:00Z,26.6955,-81.8138,1.59,0.17,1111122 
SCCF RECON,ioos:station:SCCF:18:1,2013-07-10T06:00:00Z,26.6955,-81.8138,1.58,0.17,1111122 
SCCF RECON,ioos:station:SCCF:18:1,2013-07-10T07:00:00Z,26.6955,-81.8138,1.63,0.18,1111122 
SCCF RECON,ioos:station:SCCF:18:1,2013-07-10T08:00:00Z,26.6955,-81.8138,1.7,0.18,1111122 
SCCF RECON,ioos:station:SCCF:18:1,2013-07-10T09:00:00Z,26.6955,-81.8138,1.76,0.18,1111122 
SCCF RECON,ioos:station:SCCF:18:1,2013-07-10T10:00:00Z,26.6955,-81.8138,1.79,0.18,1111122 
SCCF RECON,ioos:station:SCCF:18:1,2013-07-10T11:00:00Z,26.6955,-81.8138,1.81,0.18,1111122 
SCCF RECON,ioos:station:SCCF:18:1,2013-07-10T12:00:00Z,26.6955,-81.8138,1.78,0.18,1111122 
SCCF RECON,ioos:station:SCCF:18:1,2013-07-10T13:00:00Z,26.6955,-81.8138,1.75,0.19,1111122 
SCCF RECON,ioos:station:SCCF:18:1,2013-07-10T14:00:00Z,26.6955,-81.8138,1.7,0.18,1111122 
SCCF RECON,ioos:station:SCCF:18:1,2013-07-10T15:00:00Z,26.6955,-81.8138,1.66,0.19,1111122 
SCCF RECON,ioos:station:SCCF:18:1,2013-07-10T16:00:00Z,26.6955,-81.8138,1.64,0.18,1111122 
SCCF RECON,ioos:station:SCCF:18:1,2013-07-10T17:00:00Z,26.6955,-81.8138,1.65,0.19,1111122 
SCCF RECON,ioos:station:SCCF:18:1,2013-07-10T18:00:00Z,26.6955,-81.8138,1.75,0.2,1111122 
SCCF RECON,ioos:station:SCCF:18:1,2013-07-10T19:00:00Z,26.6955,-81.8138,1.86,0.2,1111122 
SCCF RECON,ioos:station:SCCF:18:1,2013-07-10T20:00:00Z,26.6955,-81.8138,1.91,0.19,1111122 
SCCF RECON,ioos:station:SCCF:18:1,2013-07-10T21:00:00Z,26.6955,-81.8138,1.93,0.2,1111122 
SCCF RECON,ioos:station:SCCF:18:1,2013-07-10T22:00:00Z,26.6955,-81.8138,1.92,0.19,1111122 
SCCF RECON,ioos:station:SCCF:18:1,2013-07-10T23:00:00Z,26.6955,-81.8138,1.88,0.19,1111122 
SCCF RECON,ioos:station:SCCF:18:1,2013-07-11T00:00:00Z,26.6955,-81.8138,1.82,0.2,1111122 
SCCF RECON,ioos:station:SCCF:18:1,2013-07-11T01:00:00Z,26.6955,-81.8138,1.78,0.2,1111122 
SCCF RECON,ioos:station:SCCF:18:1,2013-07-11T02:00:00Z,26.6955,-81.8138,1.73,0.2,1111122 
SCCF RECON,ioos:station:SCCF:18:1,2013-07-11T03:00:00Z,26.6955,-81.8138,1.69,0.2,1111122 
SCCF RECON,ioos:station:SCCF:18:1,2013-07-11T04:00:00Z,26.6955,-81.8138,1.65,0.2,1111122 
SCCF RECON,ioos:station:SCCF:18:1,2013-07-11T05:00:00Z,26.6955,-81.8138,1.605,0.19,1111122 
SCCF RECON,ioos:station:SCCF:18:1,2013-07-11T06:00:00Z,26.6955,-81.8138,1.57,0.19,1111122 
SCCF RECON,ioos:station:SCCF:18:1,2013-07-11T07:00:00Z,26.6955,-81.8138,1.58,0.19,1111122 
SCCF RECON,ioos:station:SCCF:18:1,2013-07-11T08:00:00Z,26.6955,-81.8138,1.64,0.19,1111122 
SCCF RECON,ioos:station:SCCF:18:1,2013-07-11T09:00:00Z,26.6955,-81.8138,1.71,0.19,1111122 
SCCF RECON,ioos:station:SCCF:18:1,2013-07-11T10:00:00Z,26.6955,-81.8138,1.77,0.19,1111122 
SCCF RECON,ioos:station:SCCF:18:1,2013-07-11T11:00:00Z,26.6955,-81.8138,1.8,0.19,1111122 
SCCF RECON,ioos:station:SCCF:18:1,2013-07-11T12:00:00Z,26.6955,-81.8138,1.78,0.19,1111122 
SCCF RECON,ioos:station:SCCF:18:1,2013-07-11T13:00:00Z,26.6955,-81.8138,1.74,0.19,1111122 
SCCF RECON,ioos:station:SCCF:18:1,2013-07-11T14:00:00Z,26.6955,-81.8138,1.7,0.19,1111122 
SCCF RECON,ioos:station:SCCF:18:1,2013-07-11T15:00:00Z,26.6955,-81.8138,1.67,0.19,1111122 
SCCF RECON,ioos:station:SCCF:18:1,2013-07-11T16:00:00Z,26.6955,-81.8138,1.65,0.19,1111122 
SCCF RECON,ioos:station:SCCF:18:1,2013-07-11T17:00:00Z,26.6955,-81.8138,1.65,0.19,1111122 
SCCF RECON,ioos:station:SCCF:18:1,2013-07-11T18:00:00Z,26.6955,-81.8138,1.69,0.19,1111122 
SCCF RECON,ioos:station:SCCF:18:1,2013-07-11T19:00:00Z,26.6955,-81.8138,1.77,0.19,1111122 
SCCF RECON,ioos:station:SCCF:18:1,2013-07-11T20:00:00Z,26.6955,-81.8138,1.84,0.18,1111122 
SCCF RECON,ioos:station:SCCF:18:1,2013-07-11T21:00:00Z,26.6955,-81.8138,1.88,0.18,1111122 
SCCF RECON,ioos:station:SCCF:18:1,2013-07-11T22:00:00Z,26.6955,-81.8138,1.92,0.18,1111122 